Overview Statistics Trail Chart Weather Telemetry Raw packets
 

This is the latest recevied weather packets stored in our database for station/object WW6Q. If no packets are shown the sender has not sent any weather packets the latest 10 day(s).

<< 100 101 102 103 104 105 106 >>
Time Temp. Humidity Pressure Rain* Wind** Luminosity Snow
1787875691 22.78° C 69% 1015.1 hPa 0 mm - 10 W/m² -
1787875389 22.78° C 71% 1015.1 hPa 0 mm - 13 W/m² -
1787875089 23.33° C 70% 1014.9 hPa 0 mm - 16 W/m² -
1787874784 23.33° C 68% 1015 hPa 0 mm - 19 W/m² -
1787874482 23.33° C 68% 1015.1 hPa 0 mm - 22 W/m² -
1787874177 23.89° C 66% 1014.8 hPa 0 mm - 24 W/m² -
1787873872 23.89° C 67% 1015 hPa 0 mm - 27 W/m² -
1787873571 23.89° C 66% 1014.7 hPa 0 mm - 29 W/m² -
1787873267 23.89° C 66% 1014.9 hPa 0 mm - 31 W/m² -
1787872965 24.44° C 65% 1014.8 hPa 0 mm - 33 W/m² -
1787872661 24.44° C 63% 1014.8 hPa 0 mm - 35 W/m² -
1787872357 24.44° C 62% 1014.9 hPa 0 mm - 37 W/m² -
1787872051 24.44° C 63% 1014.9 hPa 0 mm - 39 W/m² -
1787871746 24.44° C 62% 1014.9 hPa 0 mm - 40 W/m² -
1787871442 24.44° C 63% 1014.9 hPa 0 mm - 44 W/m² -
1787871142 24.44° C 62% 1014.7 hPa 0 mm - 43 W/m² -
1787870842 24.44° C 63% 1014.9 hPa 0 mm - 45 W/m² -
1787870537 25° C 61% 1014.7 hPa 0 mm - 45 W/m² -
1787870232 25° C 62% 1014.7 hPa 0 mm - 48 W/m² -
1787869927 25.56° C 60% 1014.8 hPa 0 mm - 47 W/m² -
1787869626 25.56° C 58% 1014.9 hPa 0 mm - 52 W/m² -
1787869321 25.56° C 59% 1014.7 hPa 0 mm - 56 W/m² -
1787869020 25.56° C 58% 1014.8 hPa 0 mm - 58 W/m² -
1787868719 25.56° C 59% 1014.9 hPa 0 mm - 60 W/m² -
1787868418 26.11° C 56% 1014.9 hPa 0 mm - 68 W/m² -

* Rain latest hour (hover to see other rain measurements)
** Current wind speed in m/s (hover to see current wind gust speed)